Location: Rio Negrinho
(26.2394°S, 49.4999°W)
Time: 02:02:41
(UTC+00:00)

NOAA 6 - Pass Details

Date: 09 October 2020
Orbit: 773 x 786 km, 98.7° (Epoch: 20 October)

Event Time Altitude Azimuth Distance (km) Brightness Sun altitude
Rises 21:36:33 0° 179° (S) 3,277 7.4 -4.0°
Reaches altitude 10° 21:39:00 10° 186° (S) 2,344 6.7 -4.6°
Maximum altitude 21:43:46 39° 253° (WSW) 1,166 5.8 -5.6°
Drops below altitude 10° 21:48:30 10° 320° (NW) 2,326 6.9 -6.7°
Sets 21:50:56 0° 328° (NNW) 3,249 7.5 -7.2°
